Location: Escalona
(40.1669°N, 4.4048°W)
Time: 11:34:01
(UTC+00:00)

Cosmos 2322 Rocket - Pass Details

Date: 08 August 2025
Orbit: 830 x 851 km, 71.0° (Epoch: 14 December)

Event Time Altitude Azimuth Distance (km) Brightness Sun altitude
Exits shadow 22:17:19 37° 228° (SW) 1,268 3.0 -26.8°
Maximum altitude 22:19:28 65° 295° (WNW) 916 2.5 -27.0°
Drops below altitude 10° 22:25:01 10° 17° (NNE) 2,444 5.1 -27.6°
Sets 22:27:30 0° 21° (NNE) 3,380 5.8 -27.9°
